Location: Ravensburg
(47.7866°N, 9.6124°E)
Time: 15:54:40
(UTC+02:00)

ITAMSAT 1 - Pass Details

Date: 18 March 2026
Orbit: 782 x 793 km, 98.7° (Epoch: 18 April)

Event Time Altitude Azimuth Distance (km) Brightness Sun altitude
Exits shadow 20:31:47 27° 62° (ENE) 1,473 8.7 -20.5°
Maximum altitude 20:31:48 27° 62° (ENE) 1,473 8.7 -20.5°
Drops below altitude 10° 20:36:06 10° 6° (N) 2,358 10.3 -21.2°
Sets 20:38:44 0° 355° (N) 3,294 11.3 -21.6°
